RH
4 4 4 3 4 4 4 4 4 5 5 6 6 7 8 9 9 10 10 10 10 10 10 10 9 9 8 8 8 7 7 6 6 6 5 5 5 5 5 5 6 6 6 6 5 5 4 4 5 6 8 9 11 17 17 19 24 25 30 37 37 34 45 62 64 72 93 94 70 53 54 49 33 23 20 23 22 22 24 22 23 25 25 28 30 28 26 27
3 3 3 3 3 3 3 3 4 4 4 5 6 7 7 8 8 9 9 9 9 9 9 10 9 9 9 8 8 8 8 7 7 6 6 5 5 5 5 5 5 5 6 6 7 5 4 4 4 4 8 15 15 14 16 16 21 23 30 41 36 28 33 46 53 62 82 92 75 55 55 50 34 24 21 23 21 24 33 27 19 22 24 26 27 28 28 27
3 3 3 3 3 3 3 3 4 4 4 5 6 7 8 9 10 10 10 9 10 9 9 9 9 9 9 9 9 8 8 7 7 6 6 6 5 6 4 5 4 5 5 6 8 6 6 4 4 5 5 25 29 14 14 14 19 23 26 37 35 28 30 40 51 63 82 93 79 62 57 50 39 34 24 20 29 42 49 37 22 20 20 23 26 27 28 27
2 2 2 2 2 2 3 3 3 4 4 5 5 7 8 10 11 11 11 11 10 10 9 9 9 9 8 9 9 8 8 7 7 6 6 6 5 5 4 5 4 5 5 5 7 5 8 4 5 6 -0 29 37 8 8 12 16 21 23 31 31 28 29 39 53 66 87 93 83 70 60 52 45 42 28 20 40 56 50 39 31 23 18 20 23 26 29 27
2 2 2 2 2 2 2 2 3 3 3 4 5 6 8 10 11 12 12 11 10 10 9 9 8 8 8 8 8 8 8 7 7 6 6 6 5 5 4 5 4 5 4 4 6 4 8 5 6 6 3 34 38 13 15 11 10 20 22 25 27 26 26 46 70 82 97 96 88 77 63 58 52 46 32 23 46 60 44 31 29 23 18 19 21 25 29 26
2 2 2 2 2 2 2 3 2 3 3 4 5 6 8 10 11 12 12 11 10 9 9 9 8 8 7 7 7 7 7 6 6 6 6 5 5 5 4 5 4 5 4 4 5 4 6 5 6 4 6 24 25 25 27 9 9 23 25 24 24 25 33 62 86 93 102 94 86 80 67 65 58 48 34 22 38 49 34 22 22 21 18 17 19 25 28 26
2 2 2 2 2 2 2 2 3 3 3 3 5 6 9 11 12 12 12 11 10 9 9 8 8 8 7 7 6 6 6 5 6 5 5 5 5 5 4 5 4 4 4 4 4 4 5 4 6 5 7 11 8 24 26 4 7 18 23 25 23 29 50 75 82 91 103 92 84 80 72 72 63 47 36 30 35 33 21 16 20 21 18 17 20 26 30 27
2 2 2 2 2 2 2 2 3 3 3 4 5 7 9 11 12 12 12 11 10 10 9 8 8 7 7 6 6 6 5 5 5 5 4 4 4 4 4 4 4 4 4 4 4 4 4 4 5 4 7 7 4 17 18 5 9 14 19 26 22 31 60 79 80 92 102 92 86 82 77 79 69 49 42 45 43 28 15 15 19 21 20 17 19 28 31 27
2 2 2 2 2 2 2 2 3 3 4 4 5 7 9 11 13 13 12 11 10 9 8 7 7 6 6 6 5 5 4 4 4 4 4 4 4 3 4 3 3 4 3 4 4 4 4 3 4 4 5 6 5 10 7 3 12 15 15 23 23 30 58 81 85 91 97 94 87 82 81 83 75 58 48 50 45 30 20 16 17 19 20 17 19 30 33 28
2 2 2 2 2 2 2 3 3 4 4 5 6 7 9 12 14 13 12 10 9 8 7 7 6 6 5 5 5 4 3 4 3 3 3 3 3 3 3 3 3 3 3 3 3 3 4 3 4 4 4 6 6 6 6 9 15 13 10 19 24 27 49 75 89 93 94 98 93 83 83 85 79 64 52 50 43 35 26 17 15 19 19 17 22 32 35 31
2 2 2 2 2 2 2 3 4 4 5 6 7 8 10 13 14 13 11 9 8 7 6 5 5 5 4 4 4 3 3 3 3 3 3 3 3 3 2 2 2 2 2 3 3 3 3 3 4 4 5 6 6 8 13 16 13 10 8 15 22 25 38 55 76 92 93 97 99 90 83 83 79 64 54 50 42 36 28 17 15 18 19 19 24 34 37 33
3 2 2 2 2 3 3 4 5 5 6 8 8 9 12 14 14 12 9 7 6 6 5 5 4 4 4 4 3 3 3 3 3 3 3 3 2 2 2 2 2 2 2 2 2 3 2 3 3 4 5 5 6 10 13 11 7 7 6 10 18 22 32 40 57 78 85 93 101 96 87 81 75 67 59 50 42 37 29 22 19 17 19 20 25 35 38 35
2 2 3 3 3 3 3 4 5 6 8 9 9 10 13 15 14 10 8 6 5 5 5 4 4 4 4 4 4 3 3 3 3 3 2 3 2 2 2 2 2 2 2 2 2 2 2 3 2 3 5 5 7 8 9 8 6 7 6 8 16 27 37 38 46 60 69 84 96 99 95 84 76 72 65 52 45 41 32 28 25 20 19 20 26 34 37 36
3 3 3 4 4 4 5 5 7 8 10 10 11 13 15 15 12 8 6 5 5 5 5 5 4 4 4 4 4 3 4 3 3 3 3 3 3 3 2 2 2 2 2 2 2 2 2 2 2 3 4 5 7 8 10 10 8 8 6 9 18 41 57 45 39 50 58 71 86 97 97 88 81 75 68 56 47 44 39 33 28 23 19 18 25 32 35 37
3 4 5 6 7 7 7 8 9 11 12 13 13 14 15 13 10 7 6 5 5 5 5 5 5 4 4 4 4 3 3 3 3 3 3 3 3 3 3 2 2 2 2 2 2 2 2 2 2 3 3 5 7 8 11 12 12 8 8 23 28 40 63 52 34 37 46 60 78 95 96 87 84 79 71 59 47 46 47 42 29 21 19 17 25 31 33 38
4 6 8 9 10 11 11 12 14 15 15 16 15 15 13 10 8 6 6 6 5 6 5 5 5 4 4 3 3 3 3 3 3 3 3 3 3 3 3 3 3 3 2 2 2 2 2 2 2 3 3 6 6 7 11 13 23 23 17 35 40 39 55 51 32 26 34 54 75 92 94 87 84 80 77 65 50 49 52 50 33 18 19 17 24 32 31 37
7 9 12 14 16 16 17 18 19 19 19 18 15 13 11 8 6 6 6 6 6 6 5 5 5 4 4 4 3 3 3 3 2 3 3 2 3 3 3 3 3 3 3 2 2 2 2 2 2 3 3 6 6 8 11 10 26 42 35 34 39 41 50 47 35 24 31 61 83 92 92 89 88 85 84 72 55 53 54 55 39 18 18 19 22 30 31 36
9 13 16 18 20 21 22 22 22 21 18 16 13 10 9 7 6 6 7 7 6 6 6 5 5 5 5 4 4 3 3 3 3 3 3 3 3 3 3 3 3 3 3 3 3 3 2 3 2 3 4 5 7 8 11 15 31 47 43 38 39 42 46 45 41 29 32 63 83 91 94 91 92 90 89 81 63 55 55 57 47 21 13 19 23 28 32 35
13 17 20 21 22 23 22 21 19 17 14 12 10 8 7 6 6 7 8 7 6 6 6 6 6 6 6 5 5 4 3 3 4 4 4 5 4 5 5 4 4 3 4 3 3 3 3 4 3 3 5 6 7 8 11 24 45 50 43 46 48 48 45 40 41 36 37 62 75 82 94 94 91 92 92 89 73 57 54 58 54 30 13 16 22 27 33 35
17 22 23 21 22 22 20 18 15 12 10 9 7 7 6 7 8 8 8 7 7 6 6 7 7 7 7 6 5 5 5 4 4 5 5 6 7 7 7 6 5 4 4 4 4 4 4 4 4 4 7 6 6 10 10 21 44 50 45 52 55 51 47 39 40 45 49 72 82 78 90 96 91 93 93 90 81 65 56 59 60 43 20 15 23 29 34 35
17 22 25 21 19 20 17 14 12 10 9 7 6 7 8 9 9 8 8 7 7 7 7 8 8 8 7 7 6 6 6 5 6 7 7 8 8 8 8 7 6 5 5 5 4 5 5 5 6 5 6 6 7 11 12 23 43 49 45 52 53 44 44 42 37 42 53 72 82 79 89 98 93 94 93 88 87 76 58 55 62 54 32 19 22 29 34 35
15 19 24 22 18 18 16 13 11 9 8 7 7 8 9 10 9 9 8 7 7 8 9 10 9 9 8 7 7 6 6 7 7 8 9 10 10 10 9 7 7 6 6 6 6 6 6 7 6 6 6 7 11 12 13 23 42 51 46 51 57 46 41 41 28 28 52 73 80 84 93 98 94 93 92 88 89 80 58 47 54 57 44 28 22 25 32 36
14 14 19 23 20 17 16 12 10 9 7 7 9 10 11 10 10 9 8 8 9 9 10 11 10 10 9 8 8 7 7 8 8 9 10 11 12 11 10 8 7 7 7 7 7 7 9 10 6 7 8 8 12 15 15 19 33 49 55 60 65 50 35 39 33 25 47 74 82 87 95 100 97 94 91 89 89 79 56 42 44 50 48 37 27 26 31 35
13 12 13 20 23 19 16 13 11 9 8 9 10 11 11 10 11 9 8 9 9 11 12 12 12 11 10 9 8 8 7 8 9 11 12 12 13 12 10 8 7 7 7 8 8 9 11 10 7 9 10 11 14 18 18 18 22 33 44 51 55 48 36 36 35 28 43 71 79 84 96 100 98 96 94 93 91 77 55 43 43 44 45 41 33 29 30 32
9 11 9 14 23 23 18 15 13 10 9 10 11 11 12 11 11 9 9 10 10 12 13 13 13 12 11 10 8 9 8 8 10 12 13 12 13 12 10 8 7 7 8 8 9 11 11 9 11 11 9 12 16 21 23 19 20 27 29 26 29 46 54 41 28 28 48 74 78 81 95 100 97 96 98 97 90 76 57 47 47 43 39 39 36 33 30 29
5 9 8 9 17 25 23 18 15 13 10 11 11 12 12 12 11 10 11 11 11 13 14 14 15 14 12 10 9 10 8 9 10 10 12 13 13 12 11 10 8 7 7 8 10 10 11 11 13 13 11 14 16 21 25 19 20 30 29 15 13 41 63 53 34 29 53 83 86 85 94 98 100 99 98 98 94 84 67 52 50 46 38 35 37 37 33 30
4 6 8 7 10 19 25 23 19 15 12 11 12 12 12 12 12 12 13 13 13 15 15 15 15 15 13 11 11 10 8 9 9 9 11 13 14 13 13 12 9 8 7 9 11 12 12 14 16 14 11 12 15 21 27 22 19 24 27 15 14 43 61 55 43 31 50 85 94 91 94 95 98 100 99 98 96 94 80 60 53 54 43 31 33 37 35 33
6 5 6 7 7 12 22 27 24 19 15 13 12 12 13 12 12 13 14 15 15 16 17 17 16 15 15 14 13 11 9 9 10 11 12 13 15 14 14 14 12 11 9 11 14 13 13 16 17 14 11 10 13 19 23 25 21 18 26 20 20 55 71 55 46 38 46 74 89 91 93 93 97 99 100 100 98 96 86 67 57 60 52 32 26 34 37 34
7 6 6 7 7 9 15 23 27 25 20 15 13 13 13 12 14 15 14 15 17 18 19 18 17 17 17 17 14 11 10 10 12 15 14 15 17 16 16 17 16 15 14 15 15 14 16 18 15 13 13 11 11 16 19 25 23 17 24 25 31 73 89 61 49 46 45 57 74 84 86 88 93 97 100 100 99 96 88 78 67 65 62 41 23 28 34 32
9 8 7 6 7 9 11 17 24 27 25 19 14 13 13 14 15 14 15 17 18 19 21 19 19 20 20 19 15 11 11 12 15 20 22 21 20 19 19 18 19 20 19 19 18 17 18 16 16 15 16 14 11 16 21 24 24 18 18 22 43 87 96 71 61 54 44 45 57 75 84 85 88 91 96 99 100 98 93 89 79 71 70 54 30 25 29 30
12 11 11 9 8 8 10 14 20 26 28 24 16 14 15 15 15 15 17 17 18 21 22 20 20 21 22 21 15 10 15 22 26 29 32 31 26 23 22 20 21 22 21 21 20 20 19 17 18 16 15 18 15 17 23 24 24 21 17 18 47 91 100 82 71 57 45 44 49 66 79 81 83 83 87 93 96 98 98 95 86 79 78 67 41 26 26 28
13 14 14 13 11 9 9 13 19 25 30 28 20 15 16 15 15 17 17 16 20 22 22 22 24 25 24 21 15 12 20 30 35 38 39 39 36 30 27 25 22 23 29 29 21 21 22 19 20 20 17 18 19 19 22 24 23 22 20 17 37 82 99 87 76 62 53 50 50 61 68 71 76 77 78 84 86 92 99 96 90 86 86 79 53 31 27 27
15 15 15 16 16 14 10 12 19 26 32 30 23 18 17 16 16 17 16 16 19 22 23 24 25 27 26 22 14 13 26 35 37 41 44 43 42 36 31 29 22 24 34 33 25 26 30 24 18 20 21 19 21 21 21 24 25 22 22 18 24 56 83 84 79 72 66 60 56 59 60 61 69 72 72 76 78 86 95 96 92 88 92 90 65 39 32 28
17 17 17 17 18 19 15 12 17 26 34 32 26 20 18 17 17 17 18 17 18 22 24 24 27 29 27 24 20 19 34 44 38 42 47 44 45 42 35 31 27 24 25 26 24 25 39 46 31 20 21 21 20 21 25 30 29 25 24 21 19 33 62 84 89 89 92 84 64 51 48 53 63 70 72 73 76 80 86 94 95 91 93 92 71 47 37 29
19 19 20 19 19 21 21 17 15 22 35 36 29 23 19 18 18 18 18 18 19 22 24 24 26 27 23 21 21 23 40 51 41 40 46 45 48 48 40 34 31 26 23 32 35 23 31 48 38 23 24 23 21 22 23 27 31 30 23 21 20 21 45 78 88 88 90 81 59 46 48 55 60 67 70 68 71 75 76 84 93 96 94 83 66 53 40 28
17 18 20 21 21 22 25 25 18 19 33 40 34 26 21 18 18 19 18 18 19 21 25 29 28 33 43 44 34 25 32 44 41 37 44 46 46 47 43 36 33 29 25 34 41 31 35 46 35 23 25 25 25 26 21 25 40 40 26 23 22 15 28 58 74 74 64 59 60 52 49 56 60 67 73 66 65 69 68 72 82 94 99 86 64 52 40 28
16 16 17 18 21 23 27 32 27 21 28 40 40 30 23 20 18 19 19 18 21 21 29 42 44 41 50 65 66 45 31 39 42 38 45 48 43 44 46 39 34 32 27 28 33 32 41 53 41 26 27 29 28 30 25 24 37 43 35 31 26 16 23 47 70 72 51 48 64 55 46 59 63 66 77 74 66 65 66 74 82 86 95 93 72 53 42 31
16 15 15 16 18 22 27 35 38 29 24 36 44 34 24 21 19 19 20 19 21 23 28 42 46 33 31 53 71 56 37 46 51 40 40 47 43 44 48 45 39 34 28 28 33 30 31 45 46 31 29 32 28 27 29 24 26 33 33 29 25 21 28 46 64 67 48 42 58 60 53 59 61 62 75 78 71 69 69 76 86 86 89 96 85 65 53 40
16 16 16 17 18 20 24 34 44 39 27 32 44 39 27 22 20 18 20 20 22 26 30 35 37 33 33 40 48 47 42 51 57 46 42 47 47 45 46 47 45 41 34 28 29 32 30 37 47 40 38 44 35 30 37 33 25 26 26 23 22 22 30 47 57 56 49 42 55 74 68 56 61 67 73 77 74 73 72 73 82 88 91 99 95 82 73 57
18 19 21 21 21 20 23 32 44 47 37 33 43 45 33 24 21 18 20 22 22 26 32 35 36 36 32 26 30 43 45 45 50 50 44 43 46 46 45 46 49 52 49 37 28 31 33 38 47 45 46 54 49 41 43 38 28 24 21 22 25 23 28 45 49 42 41 45 63 90 85 66 70 73 70 75 75 73 74 72 77 85 90 98 100 93 88 76
24 26 29 30 29 26 24 29 41 49 45 37 41 46 38 27 22 19 19 22 23 27 31 35 39 36 31 31 35 35 30 32 38 39 37 39 46 50 47 45 52 58 62 59 43 33 36 43 48 50 51 55 58 55 45 39 36 25 19 34 44 34 27 40 52 45 38 49 73 94 92 81 79 74 70 77 77 75 76 74 75 80 86 96 100 97 94 90
31 34 37 36 37 33 27 28 39 49 49 42 42 46 43 34 26 20 19 22 24 29 33 36 41 39 31 34 37 26 17 20 23 26 35 43 47 52 49 46 52 57 66 74 60 41 36 37 42 53 58 54 57 60 49 43 42 24 23 49 55 36 29 41 60 61 46 48 70 84 87 90 89 80 77 80 81 82 82 80 79 81 87 96 99 99 97 95
37 39 40 39 38 36 31 30 40 49 51 47 44 46 48 42 30 21 19 23 26 29 34 39 44 45 37 33 35 30 20 13 12 20 38 49 51 54 53 51 56 61 67 73 65 48 37 34 39 48 51 46 43 45 44 40 36 31 42 60 48 33 41 45 50 62 59 58 76 82 77 85 93 87 82 83 84 85 86 85 83 81 86 95 98 100 99 96
39 40 41 39 36 34 33 35 43 51 52 51 47 48 52 47 34 23 19 22 27 30 36 41 43 45 41 35 32 28 21 15 10 12 29 50 60 62 59 56 60 66 70 74 70 58 46 43 45 42 44 49 42 39 46 44 40 45 57 60 47 41 55 57 53 64 70 72 86 89 80 85 95 93 88 86 84 83 83 84 84 81 84 92 97 99 100 97
39 41 42 40 36 33 36 41 47 52 53 53 50 50 55 51 38 27 21 21 26 30 36 42 44 43 38 33 28 22 16 13 9 8 21 44 59 64 65 64 66 70 76 77 70 60 56 57 55 49 49 54 51 52 61 56 46 47 50 55 55 53 58 60 59 67 74 75 79 79 79 87 93 93 91 87 83 80 80 81 84 83 82 86 94 99 101 99
38 41 42 41 38 36 40 45 49 51 52 53 51 51 54 54 44 32 24 22 24 30 36 41 46 46 41 35 30 24 19 13 9 11 20 38 57 66 71 74 76 80 85 83 68 55 55 54 49 49 55 59 64 69 72 66 55 52 58 68 73 71 69 61 54 58 64 65 67 70 77 87 90 92 93 87 81 79 78 78 79 80 79 81 88 95 99 100
37 39 41 41 40 39 41 46 47 49 51 51 51 52 55 56 51 37 27 24 25 30 38 43 48 50 47 41 33 29 24 16 13 17 20 31 50 63 72 79 83 83 81 79 68 54 53 52 44 43 49 57 65 68 71 72 64 57 62 70 71 72 72 64 53 49 55 64 70 71 78 87 85 83 86 85 79 75 77 79 76 74 75 77 81 87 93 100
35 34 37 38 40 40 42 45 47 48 50 51 51 55 59 60 57 43 27 23 27 33 40 46 52 55 53 46 38 31 24 16 19 25 24 28 40 52 66 76 79 81 79 78 73 62 59 60 53 46 46 50 54 56 62 69 67 61 59 62 66 66 65 68 61 46 53 77 79 67 72 83 80 76 79 80 75 71 75 80 76 71 70 71 73 77 81 90
34 31 33 36 38 40 41 42 47 49 50 52 55 60 64 65 63 51 29 20 26 34 42 52 59 60 56 50 41 33 28 26 30 31 25 28 35 42 57 71 76 81 82 81 80 74 67 63 53 48 49 51 51 52 55 59 60 62 61 63 73 72 63 71 73 56 59 81 80 67 69 74 74 76 78 75 70 67 70 74 73 71 68 65 67 70 71 76
34 31 33 35 36 38 39 40 44 49 52 56 60 63 67 66 66 57 36 23 26 32 38 53 62 59 54 51 44 37 31 28 28 25 21 26 30 35 50 66 75 80 80 80 81 77 73 68 57 52 54 53 49 47 49 50 50 54 60 65 78 80 65 63 72 72 77 86 83 75 70 66 66 71 73 73 70 67 67 70 71 71 68 67 69 70 69 70
35 33 33 34 34 35 37 37 39 45 52 58 62 64 67 67 67 63 44 27 27 32 36 48 59 59 57 56 52 45 36 27 22 20 19 22 25 29 40 53 61 67 72 79 81 77 80 80 70 63 63 60 52 45 43 43 43 46 54 60 71 80 72 62 67 80 87 86 79 70 63 60 62 63 67 75 74 69 69 71 71 70 70 72 76 79 79 77
39 37 34 34 32 32 34 34 36 39 45 53 60 64 68 70 69 67 52 33 28 34 37 44 53 56 58 59 56 49 41 31 25 21 18 16 17 19 26 36 45 51 60 73 79 75 78 83 80 76 76 71 59 47 40 38 39 40 45 53 63 71 71 65 67 82 92 85 76 71 65 63 64 64 68 74 72 68 69 69 67 65 67 71 79 89 93 92
Wind_Speed
8 9 9 9 10 11 11 12 12 12 12 13 13 14 15 15 16 16 15 15 15 15 15 15 14 14 14 14 14 14 14 13 13 12 11 11 11 9 9 8 7 7 6 7 7 6 6 6 6 5 6 6 5 4 6 7 7 6 4 3 3 4 3 2 2 2 6 9 13 15 13 14 13 13 13 12 12 13 13 12 11 9 6 4 2 2 2 5
10 10 11 11 11 12 12 13 13 14 14 14 14 14 14 15 15 16 16 16 16 16 16 15 15 15 15 15 15 15 15 14 14 13 12 13 12 11 11 10 8 8 7 7 7 8 8 8 8 7 8 7 5 4 5 6 7 6 5 4 5 5 4 4 4 5 8 10 15 16 15 15 14 13 13 12 12 13 13 12 11 10 8 6 4 4 2 4
11 12 12 12 13 13 14 14 15 15 15 15 15 15 15 14 14 14 15 15 16 16 16 16 15 15 15 15 15 15 15 15 15 14 14 14 13 13 13 12 10 9 9 8 9 9 10 10 9 9 10 8 7 5 4 4 5 6 6 6 5 5 5 6 7 8 10 13 17 18 17 17 15 13 12 12 12 12 12 11 11 9 8 8 6 4 3 4
12 13 13 14 14 15 15 15 16 16 16 16 16 16 15 15 15 15 14 15 15 15 16 16 16 16 16 16 15 15 15 15 15 15 15 15 15 14 14 13 12 11 10 10 10 11 12 12 11 11 11 10 8 5 4 4 5 6 6 6 5 5 6 8 9 10 12 17 20 21 19 17 15 14 13 12 12 11 10 10 9 7 7 8 7 6 4 3
13 14 15 15 16 16 17 17 17 17 17 16 16 16 16 16 15 15 15 15 15 15 15 15 15 15 15 15 15 15 15 15 15 16 16 16 16 16 16 15 14 13 13 12 12 12 13 13 12 13 13 11 9 6 4 4 5 5 5 5 5 6 7 8 11 13 17 22 24 23 21 19 15 14 13 12 11 10 9 8 7 6 6 7 6 6 5 4
14 15 16 17 17 18 18 18 18 18 18 17 16 16 15 15 15 15 15 15 15 15 15 15 16 15 15 15 15 15 16 16 16 16 16 17 17 17 17 16 15 15 15 14 14 14 14 14 15 15 15 14 10 7 5 4 5 4 4 5 5 5 7 8 12 12 20 26 25 25 22 19 14 13 13 13 11 10 10 8 7 6 5 5 5 5 4 4
16 17 18 18 19 19 19 20 20 19 19 18 17 16 15 15 15 15 15 15 15 15 15 15 16 16 16 15 15 15 16 16 16 16 17 17 18 18 18 18 17 17 17 16 16 16 16 16 16 16 16 16 12 8 7 6 6 4 5 5 4 4 7 6 11 7 24 29 26 27 22 19 15 14 14 13 11 10 11 9 8 6 4 5 6 5 4 4
17 18 19 20 21 21 21 21 21 20 19 18 17 16 16 15 14 15 15 15 16 15 15 15 15 16 16 15 15 15 16 16 16 16 17 17 18 19 19 19 19 19 19 18 18 18 18 18 18 18 18 17 12 10 10 9 7 5 5 4 4 4 5 4 11 2 24 29 27 28 22 19 16 14 14 13 12 11 11 11 10 7 5 6 7 5 4 4
19 20 21 22 23 23 23 23 22 21 20 19 18 17 16 15 15 15 15 15 16 15 15 14 15 15 15 15 15 15 15 15 16 16 16 17 18 18 19 19 19 20 20 20 20 20 21 20 20 19 18 16 13 12 12 10 8 6 5 4 5 4 2 2 6 5 11 18 25 26 21 19 16 15 13 12 13 12 12 11 11 9 7 7 7 5 4 4
21 22 23 24 25 25 24 24 23 22 20 19 17 16 16 15 15 15 16 16 15 15 14 13 13 13 13 13 13 14 14 15 15 15 16 16 17 17 18 19 19 20 20 20 21 22 22 22 21 20 19 16 14 14 13 11 9 8 6 5 6 5 2 0 2 3 1 8 21 24 20 19 17 15 14 13 12 12 12 11 11 9 8 8 7 5 4 4
23 24 25 26 26 26 25 24 23 22 20 18 17 16 15 15 15 16 15 15 14 13 12 12 11 11 11 11 12 12 13 14 14 15 15 16 16 17 17 18 19 20 20 21 22 23 23 23 23 22 19 17 16 15 14 12 10 9 8 7 7 7 6 4 4 4 2 5 16 22 20 18 18 16 14 13 12 12 12 11 11 10 9 8 7 6 5 5
24 25 26 27 27 26 25 24 23 22 20 18 17 15 14 14 15 15 15 13 12 11 10 9 9 9 10 10 11 11 12 13 14 14 15 16 16 17 17 17 18 19 20 21 22 23 23 24 24 22 20 18 17 15 15 13 11 11 9 8 9 9 9 8 7 5 5 7 13 20 20 18 19 17 14 13 12 12 11 11 11 11 10 9 8 7 5 5
26 26 27 26 26 25 24 23 22 20 19 17 15 14 13 14 14 14 13 11 10 9 8 7 8 8 9 10 10 11 12 13 14 15 16 16 17 17 17 17 18 19 19 20 21 22 23 24 24 23 21 20 17 16 16 14 12 12 11 9 10 10 10 9 10 8 8 9 12 18 20 19 19 18 15 13 13 12 11 11 11 11 11 10 9 8 6 5
26 26 26 26 25 24 23 22 20 19 17 15 14 13 13 13 13 13 11 9 7 7 6 7 8 9 10 11 12 12 13 14 15 17 17 17 18 18 18 18 19 19 19 20 21 22 23 23 24 24 22 20 18 17 16 15 13 13 12 11 11 11 10 11 12 12 10 10 11 17 22 22 21 19 17 15 14 14 12 12 11 12 12 11 10 8 7 6
26 26 26 25 24 24 22 21 18 16 15 13 12 12 12 12 12 11 9 7 6 6 6 8 9 10 11 12 12 13 14 15 16 17 18 18 19 20 20 20 20 20 20 20 21 22 22 22 23 23 21 20 19 18 17 16 14 14 14 13 13 12 12 13 14 14 12 12 12 16 22 25 24 21 18 16 15 14 13 12 12 12 13 12 11 9 8 7
26 25 25 24 23 22 21 19 16 14 12 11 11 11 11 11 10 9 7 6 6 6 7 9 10 10 11 12 12 13 14 15 17 18 19 19 20 21 21 22 21 21 21 21 21 22 21 22 22 21 20 21 20 18 18 17 15 15 16 14 14 13 13 13 14 15 13 13 14 15 21 27 26 22 19 17 16 15 14 13 12 12 13 13 11 10 9 9
25 25 24 23 22 21 19 16 14 12 11 10 10 10 10 10 9 7 7 6 6 7 8 9 10 10 11 11 12 13 14 15 16 17 19 20 20 21 22 22 22 22 22 22 22 22 21 21 20 20 21 21 20 19 19 19 17 16 17 16 15 14 14 15 15 15 14 14 14 15 21 27 26 23 20 18 17 16 15 13 12 12 13 13 12 11 11 9
24 24 23 22 20 19 17 14 13 12 11 10 9 9 9 8 7 7 6 6 7 7 8 9 9 9 10 11 12 13 13 14 15 16 18 19 20 21 21 22 22 22 22 22 22 22 21 20 20 20 20 21 21 21 22 22 19 17 17 16 16 16 15 15 14 16 15 14 13 14 20 27 27 24 21 19 18 17 16 14 12 12 13 13 13 12 11 9
23 22 21 20 19 17 15 13 12 11 10 9 8 8 7 7 6 6 6 7 7 7 8 8 9 9 10 11 12 12 13 13 14 15 16 17 18 19 20 21 22 22 22 22 21 21 20 20 20 19 19 22 23 24 26 23 19 18 18 17 17 16 16 16 15 15 15 13 13 13 18 28 29 25 23 21 20 18 16 15 13 13 13 13 14 12 11 10
21 21 20 19 17 16 14 13 12 11 10 9 7 7 6 6 6 6 6 7 7 7 8 8 9 10 11 12 12 12 13 14 14 14 14 15 16 17 18 19 20 21 21 21 19 19 20 19 19 20 23 26 27 28 28 24 20 19 19 18 18 18 18 17 16 15 15 13 14 14 19 30 31 26 25 23 21 19 17 15 14 13 13 14 14 12 11 11
20 20 20 19 17 15 14 13 12 11 9 8 7 7 6 6 6 6 6 6 6 7 8 8 9 11 12 12 13 13 13 13 13 13 13 14 14 15 16 17 19 20 20 19 18 18 19 19 21 24 27 27 27 29 28 26 24 21 20 19 19 21 19 19 17 15 15 13 14 14 18 31 33 27 26 25 22 20 18 17 16 16 14 14 14 12 11 11
19 19 19 18 16 15 13 12 12 10 9 8 7 7 7 6 6 6 6 6 7 8 8 9 11 13 13 14 14 14 13 12 12 12 13 13 13 14 14 15 17 18 19 17 17 17 18 21 24 25 24 26 28 29 29 28 26 22 21 20 21 23 20 19 18 17 15 13 14 14 17 30 35 29 26 26 24 22 20 20 19 18 17 15 15 13 11 12
19 19 19 18 17 15 13 12 11 10 9 8 7 7 7 6 6 6 6 7 8 9 9 11 13 14 14 15 15 13 12 11 12 12 12 12 13 12 12 14 15 17 18 18 18 17 19 23 23 22 24 27 29 29 29 29 27 24 23 21 22 23 21 20 19 18 17 13 13 13 15 27 34 29 27 28 26 23 20 20 19 19 19 17 16 14 13 14
18 19 19 18 17 15 14 12 11 10 10 9 8 8 7 7 6 6 7 9 9 10 12 14 15 15 15 15 14 12 11 10 10 11 11 12 12 11 12 13 14 17 18 19 18 17 20 21 19 22 25 27 28 29 29 29 28 27 26 24 23 22 21 21 19 18 18 14 14 14 15 25 33 29 29 29 26 23 22 21 19 18 19 19 17 15 15 16
19 19 19 18 16 15 14 12 11 11 10 9 9 9 8 8 8 8 9 10 10 11 13 15 15 14 15 14 12 11 10 9 9 9 10 11 11 11 11 12 14 17 18 19 18 19 20 17 17 23 25 26 28 28 29 30 28 26 27 27 25 22 21 21 20 19 18 15 14 15 14 21 31 30 29 30 26 23 22 21 20 18 19 19 16 15 16 15
19 19 19 18 16 15 14 13 12 11 11 10 10 9 9 9 9 9 10 10 11 13 14 14 14 13 14 13 11 11 11 10 9 9 9 10 10 10 11 11 13 16 18 19 19 19 18 16 19 23 24 26 28 28 29 30 27 25 26 27 25 23 22 22 22 22 21 15 13 16 15 16 25 30 30 30 26 23 22 22 21 19 18 18 18 17 16 15
19 19 19 18 17 15 14 13 12 11 11 11 11 10 10 10 10 9 10 11 11 13 14 14 14 13 14 12 11 12 13 12 11 9 8 8 9 9 10 10 12 14 16 16 17 19 18 17 20 22 23 25 27 27 28 28 28 27 26 26 25 24 24 24 23 23 23 18 13 16 17 14 17 26 30 29 27 26 26 23 22 20 18 19 20 19 17 16
19 19 19 18 17 16 14 13 12 12 12 11 11 11 10 10 10 10 11 11 12 13 13 14 15 14 14 13 11 11 12 13 11 9 8 8 8 9 9 10 10 12 13 13 16 18 17 18 20 21 22 23 26 29 30 28 29 29 27 27 28 25 24 26 25 24 25 22 16 15 17 13 11 17 25 27 27 27 27 25 23 21 19 19 20 20 19 17
20 19 19 18 17 16 15 14 13 12 12 12 12 11 11 11 10 10 11 10 11 13 13 13 14 15 15 13 12 11 11 11 10 9 9 8 8 8 9 9 9 10 10 11 14 15 15 17 19 20 21 23 26 30 31 29 29 29 28 28 29 25 24 27 26 25 25 24 21 17 16 15 12 13 16 21 26 28 26 24 25 23 21 20 20 20 20 19
20 20 19 19 18 17 16 14 13 13 12 11 11 11 11 11 10 10 10 9 11 12 12 12 13 14 15 14 13 12 11 11 9 8 8 8 8 8 8 8 8 8 7 9 11 11 12 15 17 19 21 22 25 27 28 29 29 29 29 30 30 24 23 27 26 25 25 25 24 19 16 15 14 15 14 14 19 26 28 26 26 26 23 21 21 20 21 20
21 20 20 20 18 17 17 15 14 13 13 12 11 11 11 10 10 10 9 9 11 11 11 11 12 13 14 14 13 12 11 10 8 8 8 8 7 8 8 8 7 6 6 8 10 10 13 16 18 19 20 20 22 24 26 27 28 29 29 30 31 23 19 24 26 25 24 24 26 21 16 14 14 16 16 13 12 18 27 29 27 27 25 21 21 21 21 22
21 21 20 20 19 18 17 16 15 14 13 12 11 11 10 10 10 9 9 10 10 10 10 11 11 12 14 13 12 10 10 8 8 8 8 8 8 7 7 7 6 5 6 8 10 11 13 16 17 17 18 19 20 22 24 26 27 28 28 30 32 26 19 21 23 23 23 24 26 22 17 15 14 14 15 16 12 10 20 30 29 28 28 24 22 22 22 23
21 21 20 20 20 19 18 17 16 15 14 13 12 11 10 10 10 9 10 10 9 9 10 10 10 12 14 13 11 9 8 7 8 9 8 7 7 7 7 7 7 7 8 8 9 9 10 14 16 16 17 18 19 20 22 24 27 28 28 30 32 29 24 20 19 19 21 23 23 21 18 15 13 14 14 16 14 9 12 25 30 29 29 28 24 23 24 24
21 21 20 20 20 19 18 17 17 15 14 13 12 11 11 11 9 9 9 9 8 9 9 9 9 10 11 12 10 9 8 7 7 9 8 7 6 6 7 8 8 10 9 9 10 9 9 11 14 16 18 18 19 19 19 22 25 28 29 29 31 31 27 20 17 17 18 18 19 19 18 17 14 13 14 14 13 10 9 17 27 31 31 30 28 26 25 25
21 21 20 20 19 19 18 18 17 16 15 14 13 12 12 11 10 9 9 8 8 8 8 8 9 10 11 10 8 8 8 7 7 8 7 6 6 5 7 8 8 10 9 8 9 10 12 13 13 14 17 17 18 18 19 20 22 26 29 29 30 32 29 22 18 19 19 17 17 17 16 16 14 12 13 13 12 12 10 11 20 29 33 32 30 29 27 26
22 21 21 20 19 19 18 18 17 17 16 14 13 13 13 12 10 9 9 9 8 7 7 8 8 9 10 8 7 7 8 8 7 8 7 6 6 5 6 8 8 9 10 10 10 10 12 14 13 14 16 17 17 18 19 20 20 24 27 29 29 32 32 27 21 20 21 19 17 16 16 14 13 12 11 12 12 12 12 11 14 24 32 33 31 29 28 28
22 22 21 21 20 19 18 18 18 17 16 15 14 14 13 12 11 11 10 9 8 8 6 6 7 7 7 6 5 6 9 9 7 7 6 6 7 5 6 7 7 8 10 11 12 12 13 12 12 14 16 16 17 17 19 20 21 22 25 27 28 30 32 29 23 21 23 21 17 17 17 14 13 12 10 12 14 13 14 15 14 20 29 33 33 30 27 28
23 22 22 21 20 20 18 18 17 17 17 16 15 14 13 12 12 11 11 9 9 8 6 6 8 9 7 6 4 6 8 8 7 7 7 7 8 7 6 7 7 9 10 11 12 14 14 14 14 16 16 16 18 18 19 21 22 22 24 27 27 30 33 31 25 23 23 23 20 17 17 16 14 13 11 11 14 15 16 17 16 17 24 31 34 31 28 28
24 23 23 22 21 20 18 17 17 17 17 17 15 14 13 13 13 12 11 10 9 8 7 7 9 9 8 6 6 7 7 7 8 8 7 8 10 9 8 8 8 9 11 12 12 13 15 16 17 17 16 17 18 18 18 20 21 21 23 26 28 33 35 31 27 24 22 23 21 16 17 18 16 14 12 11 13 15 17 17 16 14 18 29 35 34 30 28
24 23 23 22 21 20 18 17 17 17 17 16 15 14 14 14 13 13 12 11 10 8 8 8 8 9 8 7 6 7 8 9 10 10 9 10 10 10 9 9 9 9 11 12 12 13 15 16 18 18 17 16 17 17 18 18 19 21 23 25 28 33 33 29 27 25 22 22 20 15 16 19 17 14 13 13 13 14 16 17 16 14 15 25 35 37 33 29
22 22 21 21 20 19 18 17 17 17 17 16 16 15 15 14 14 14 13 12 11 9 8 8 9 9 8 6 6 7 8 10 12 12 11 10 10 10 9 8 8 8 8 10 12 14 15 17 18 19 18 17 16 16 17 17 18 21 24 25 27 32 32 28 26 25 23 24 20 15 15 18 18 16 14 14 14 14 16 17 17 15 14 19 31 37 36 33
21 20 20 19 19 18 18 17 17 16 16 16 16 15 15 15 15 14 14 13 12 10 9 8 9 9 9 8 8 9 9 10 12 12 11 9 9 9 9 8 8 7 6 10 12 14 16 17 19 19 20 19 15 14 16 17 19 22 25 26 26 30 31 28 27 26 25 25 22 17 16 17 16 17 16 15 15 15 15 16 16 17 14 16 26 36 39 37
19 19 18 18 18 18 17 17 17 16 16 16 16 16 15 15 15 14 14 14 13 11 9 9 9 9 10 10 10 11 10 10 11 10 9 10 9 9 9 8 9 9 7 10 12 14 16 17 19 20 20 20 17 15 18 20 22 25 27 27 27 28 28 29 30 27 26 27 22 17 17 16 15 17 17 16 16 14 14 15 16 17 16 15 23 37 41 38
18 18 18 18 17 17 16 17 17 17 17 16 16 16 15 14 15 14 13 13 13 12 10 10 10 10 10 10 11 12 12 11 10 10 10 10 9 9 9 9 10 10 8 10 12 13 15 15 18 20 21 21 20 20 21 22 24 24 24 24 26 27 26 28 30 27 27 28 21 14 16 15 14 18 17 15 16 14 13 14 14 16 17 15 19 35 43 39
17 17 18 17 17 16 16 16 17 17 17 16 16 16 14 14 14 14 13 14 13 12 11 11 11 11 10 9 10 11 11 10 10 10 10 11 10 9 10 11 11 10 8 11 13 14 15 15 16 19 20 20 20 21 20 19 19 19 19 21 24 25 23 26 30 27 26 27 22 17 17 14 14 18 18 15 15 13 12 12 12 13 15 14 15 30 43 42
18 17 17 17 16 16 16 16 17 17 17 16 16 16 15 14 13 13 13 14 14 12 11 10 11 11 10 10 10 11 11 10 9 9 10 11 10 8 8 9 10 9 7 8 12 15 15 15 16 18 19 18 17 18 17 15 16 18 18 20 23 24 23 25 29 27 24 25 24 21 19 14 13 16 16 14 13 12 11 11 11 11 13 14 13 21 37 43
19 18 17 17 16 16 16 16 17 17 17 17 16 16 15 14 14 14 13 13 14 12 11 10 11 11 12 11 11 11 11 10 9 9 10 11 10 8 8 7 8 8 5 4 9 13 14 14 16 17 18 18 17 17 15 13 15 17 18 19 21 23 24 23 26 26 25 27 26 24 22 18 16 15 13 13 12 11 10 10 11 12 12 14 15 17 26 35
20 19 17 17 16 16 17 17 17 17 17 17 16 16 16 16 15 15 14 13 13 13 11 11 11 12 13 13 12 11 11 10 9 9 10 10 11 10 9 8 7 6 4 4 8 11 12 13 14 15 17 18 17 17 16 15 15 16 18 18 19 22 23 22 23 26 27 29 29 26 23 20 18 16 13 12 13 13 11 10 11 12 12 14 18 20 21 25
21 20 18 18 17 16 17 17 17 17 17 17 16 15 17 17 16 16 14 12 12 13 12 11 12 13 13 13 12 12 11 10 9 9 9 9 11 11 9 8 6 4 4 6 9 10 10 11 13 15 16 17 17 18 18 18 19 18 19 19 19 22 24 21 20 23 26 29 30 27 23 21 19 16 13 12 13 14 13 11 10 11 13 14 17 21 23 23
21 21 20 19 18 18 17 17 18 18 17 17 17 16 17 18 17 16 15 13 13 14 13 11 13 13 12 12 13 13 13 12 12 11 9 8 10 10 9 8 6 5 6 6 8 9 8 9 13 15 15 16 17 17 18 20 21 21 21 21 21 22 23 22 20 22 26 30 29 26 24 22 20 18 15 13 13 14 13 13 12 11 12 13 14 18 23 26
22 22 22 22 21 20 19 19 19 19 19 18 18 18 18 19 18 17 16 15 14 15 14 12 13 13 12 12 13 14 14 14 14 13 9 8 10 10 9 8 8 8 7 6 6 7 7 9 11 12 13 14 15 17 18 19 22 23 22 23 23 22 22 22 22 23 26 30 29 25 24 22 20 19 16 13 13 14 14 13 13 13 13 12 12 15 21 25
23 23 23 23 22 21 21 20 20 21 21 20 19 19 19 19 19 18 17 17 16 16 15 14 14 14 13 14 14 14 15 14 14 14 11 9 10 11 11 9 7 8 8 7 6 5 6 8 9 8 9 10 12 16 18 19 22 23 22 23 25 24 23 24 23 24 28 30 26 22 23 22 19 18 16 13 13 14 14 14 14 14 13 13 11 14 19 23
Wind_Direction
344 341 339 338 337 334 331 328 323 318 312 306 300 295 291 288 288 288 290 293 294 296 296 296 296 296 294 293 291 289 287 285 283 282 281 277 276 278 273 264 257 261 263 266 274 273 270 269 265 254 252 252 239 214 204 198 200 208 214 232 227 223 250 273 324 300 239 208 174 170 165 167 170 168 168 169 173 164 163 167 161 159 150 126 164 214 147 128
343 339 337 336 336 334 332 329 326 322 318 313 308 303 297 293 291 290 290 291 292 292 293 294 294 293 291 290 288 287 286 283 282 280 277 272 272 273 270 269 264 263 261 258 263 266 266 263 265 260 256 258 249 226 211 199 198 207 214 233 237 237 262 270 273 270 238 208 185 178 172 176 177 174 175 176 181 173 166 175 173 166 158 148 179 219 187 143
342 339 335 334 333 332 330 327 323 320 317 314 310 305 301 298 296 295 294 293 293 292 292 292 292 291 289 287 285 285 283 281 279 277 274 271 270 269 268 270 268 266 261 256 253 255 257 257 261 261 260 260 255 241 218 211 203 206 214 228 243 253 264 268 276 273 237 208 189 184 180 181 180 175 181 181 182 180 174 180 183 179 172 167 180 207 208 166
341 337 333 331 330 329 328 324 321 317 314 311 308 304 301 298 296 296 297 296 294 293 292 291 290 288 286 285 283 282 280 278 276 274 272 270 270 268 267 269 269 267 263 260 253 251 254 256 259 259 262 259 257 255 231 228 216 212 219 227 244 258 270 280 283 272 237 210 190 187 186 184 182 177 181 182 180 183 181 181 187 198 196 184 181 191 210 195
339 335 332 329 328 327 325 322 318 314 311 308 305 303 300 298 296 296 296 296 295 294 292 291 290 288 285 283 282 280 277 275 272 271 270 270 269 268 268 269 269 268 266 265 259 256 255 256 257 256 259 257 259 264 246 241 231 224 221 230 248 255 274 287 287 267 224 200 187 188 189 184 181 178 179 182 182 183 182 183 189 205 213 204 201 199 212 214
335 332 329 327 326 324 322 319 316 313 309 306 303 301 299 298 297 297 297 296 295 294 292 291 290 288 285 283 281 279 275 272 270 269 269 268 268 267 268 268 268 268 267 266 263 261 258 257 256 256 258 257 264 270 261 254 244 240 226 236 244 259 289 297 304 273 205 187 182 186 189 185 178 176 180 183 184 180 179 187 189 193 205 218 235 228 224 230
331 329 326 324 323 322 319 316 313 311 308 304 301 299 298 298 297 297 297 296 296 295 293 291 289 287 286 284 281 279 276 274 272 270 268 267 267 267 267 267 267 267 266 265 264 264 262 260 258 258 259 260 268 270 267 265 253 246 229 242 243 272 309 319 335 283 185 176 179 185 187 184 178 178 182 182 182 179 178 185 188 190 199 217 236 238 241 248
328 326 324 322 320 318 315 313 311 308 305 302 300 298 297 297 298 299 297 297 298 297 295 291 288 286 285 285 283 280 278 277 274 271 269 267 267 267 267 267 267 266 265 265 264 264 262 261 259 257 258 262 269 266 267 269 262 255 232 247 244 267 318 347 5 36 172 172 179 185 186 182 180 184 185 183 182 180 179 185 188 186 193 214 228 238 257 263
327 324 322 320 317 315 312 310 308 304 301 299 297 297 297 298 301 302 300 300 301 300 296 292 288 286 285 285 284 282 280 278 276 273 271 268 267 267 267 267 266 265 264 263 261 262 261 260 260 259 260 264 267 263 266 268 263 260 236 238 238 235 308 11 36 68 164 183 186 184 183 183 184 186 186 188 188 183 182 190 192 187 192 211 223 233 262 269
326 323 321 319 316 313 311 308 306 302 300 297 296 295 296 300 303 305 304 304 303 301 298 293 289 287 285 284 283 282 281 279 277 275 273 271 271 270 269 268 267 265 264 262 260 259 259 260 260 261 262 263 263 262 264 264 258 257 243 229 232 224 229 216 109 107 139 210 196 188 182 184 188 187 187 191 192 188 187 193 194 192 195 206 218 219 245 265
326 324 321 318 315 313 310 308 305 302 299 297 296 294 296 301 305 307 308 307 305 302 299 296 291 288 286 284 283 283 282 281 279 277 276 274 272 270 270 268 267 265 263 262 260 259 258 259 259 259 259 259 259 260 259 259 257 257 249 229 227 224 216 209 181 168 182 208 200 194 186 184 191 190 189 192 194 192 190 193 196 196 195 200 214 215 228 258
326 324 321 319 316 313 311 307 304 302 299 298 296 294 297 302 306 309 310 308 306 303 301 297 292 289 288 287 286 287 286 284 282 280 278 275 273 271 269 267 265 263 261 261 259 259 258 257 258 256 255 254 253 255 257 259 258 256 252 237 227 225 221 214 204 199 201 199 204 204 196 189 194 193 190 192 197 198 192 192 198 199 194 195 209 215 222 250
327 325 322 320 318 315 312 308 305 303 301 299 296 294 299 304 308 311 311 309 307 304 300 297 297 298 298 296 295 294 291 288 286 283 280 277 276 272 270 266 263 261 259 258 257 257 256 256 256 254 250 249 248 251 254 255 254 252 249 241 233 231 231 225 217 213 210 208 211 217 210 197 197 196 190 190 196 200 196 193 198 199 195 195 204 213 221 240
328 326 324 323 321 318 315 311 308 306 304 300 296 296 301 306 310 311 311 308 304 301 302 309 315 315 311 306 304 300 295 291 287 283 281 278 275 273 270 266 263 260 257 255 254 253 253 253 254 252 249 246 243 243 248 250 248 248 247 241 235 235 239 234 223 217 219 224 223 226 219 203 199 200 192 191 195 199 199 197 199 197 196 198 202 209 219 230
330 329 328 327 325 323 320 318 316 312 308 303 298 300 304 309 312 312 309 304 301 307 319 328 328 323 316 311 308 303 298 293 287 283 280 276 273 270 267 264 261 258 255 253 251 250 250 250 250 251 249 244 240 237 240 245 245 244 242 240 235 233 241 241 230 223 225 235 235 230 220 204 200 200 194 192 194 198 202 202 202 197 196 201 203 204 216 228
333 333 333 331 330 328 326 326 325 321 315 308 304 305 308 312 313 311 307 304 310 323 332 333 330 325 318 315 312 305 301 295 289 285 279 274 270 266 263 261 259 256 254 251 249 248 247 246 247 248 246 241 237 232 232 238 240 239 236 235 234 231 239 244 239 232 230 236 237 229 216 204 200 199 196 195 194 198 204 205 207 199 194 202 205 202 213 229
336 337 336 336 335 333 334 336 333 328 322 316 312 311 313 314 313 310 309 313 323 332 333 330 329 326 322 320 315 309 305 299 293 287 281 276 271 266 263 260 257 254 252 250 247 246 244 243 243 242 240 237 234 228 226 229 230 233 234 233 233 231 234 239 240 236 233 236 235 227 216 205 198 198 199 197 194 198 205 205 208 202 194 200 208 206 213 228
339 340 340 340 339 339 341 340 334 330 326 321 317 316 316 316 313 311 316 324 331 332 327 326 327 326 327 325 319 313 309 304 299 293 286 281 274 269 264 259 255 252 250 248 246 244 242 240 238 236 235 232 230 224 220 222 223 227 230 232 233 232 234 236 237 236 235 237 232 228 219 204 197 198 201 202 199 198 204 205 204 204 196 199 209 212 216 225
342 343 342 342 341 340 342 338 332 329 326 323 320 320 318 316 316 317 326 334 335 328 322 324 326 329 332 329 323 319 315 311 306 300 292 285 278 272 265 259 254 250 248 245 243 241 238 235 233 230 229 227 224 219 216 217 219 220 221 226 229 230 233 232 234 235 233 236 231 230 222 205 198 198 199 202 202 199 203 204 203 202 197 200 210 216 218 222
345 345 343 342 339 338 338 335 334 331 327 326 324 324 319 317 322 329 336 338 332 323 322 324 329 337 338 334 330 325 318 314 309 303 296 288 282 274 267 260 253 248 246 243 240 238 234 231 226 220 220 221 219 217 214 214 217 217 214 219 225 226 229 228 232 235 231 235 234 233 224 207 198 197 199 203 205 203 200 200 202 202 196 200 212 218 220 222
345 344 343 342 337 335 337 337 336 333 330 330 327 325 323 326 332 336 339 339 330 323 326 330 336 342 341 338 335 327 320 315 311 305 297 291 283 277 270 260 253 246 243 240 236 232 229 225 221 218 219 218 216 215 211 210 213 216 215 218 225 227 229 229 231 231 229 235 233 233 226 208 196 196 201 203 206 205 201 197 197 199 197 198 209 218 221 222
342 341 342 342 338 337 339 342 340 336 334 333 331 331 332 337 340 340 340 342 336 330 335 341 344 345 343 341 335 329 324 317 312 305 297 293 285 279 271 259 250 244 239 235 230 226 222 221 221 220 219 216 214 213 210 209 210 212 214 218 225 227 226 230 231 226 228 235 229 233 230 207 197 197 201 201 205 207 204 201 196 194 194 196 206 215 220 222
338 337 339 342 341 339 341 345 345 340 339 336 335 337 338 343 346 346 345 343 339 339 345 349 350 348 344 339 334 331 327 318 312 305 297 291 285 280 272 260 248 240 235 229 227 222 218 221 221 216 215 214 213 212 211 210 211 211 211 214 222 223 221 225 228 224 227 233 226 231 228 205 198 201 203 202 208 211 208 206 200 192 191 194 200 208 215 219
333 333 336 340 342 341 341 347 348 343 342 339 338 342 343 349 352 352 348 341 339 344 350 353 351 347 343 339 335 332 328 319 312 305 300 294 288 283 273 260 244 235 232 229 226 223 223 224 219 214 214 213 211 211 212 212 214 214 211 214 219 220 220 222 222 221 223 230 227 226 224 206 199 202 205 206 209 211 210 210 205 195 193 195 195 201 211 217
328 330 333 337 339 340 342 346 347 344 343 342 341 345 347 351 354 353 347 338 339 348 351 351 350 346 343 341 337 332 329 323 313 303 300 300 296 289 276 262 245 235 231 230 227 226 229 224 217 217 216 213 211 211 213 213 215 216 213 214 214 215 221 221 217 215 216 226 228 225 224 209 203 206 206 205 208 210 209 210 208 199 195 195 191 198 211 218
324 325 329 333 335 336 339 343 344 343 343 342 342 345 348 348 350 350 343 337 342 349 349 348 348 345 343 344 340 333 333 328 315 303 300 302 300 292 279 266 253 241 231 229 229 230 231 223 218 220 217 215 212 211 215 215 216 219 215 213 210 210 220 219 213 211 210 219 225 221 225 216 210 212 209 203 204 209 211 210 210 203 197 194 189 194 209 218
324 323 325 330 332 332 333 336 340 341 341 341 341 342 345 345 345 345 342 340 342 344 345 345 345 342 342 348 345 337 337 333 320 309 302 299 296 291 281 267 258 249 236 229 231 232 230 222 220 222 220 217 213 213 217 216 216 218 214 210 207 209 220 219 213 212 209 215 222 216 222 228 218 213 209 205 202 204 211 214 212 206 200 196 190 193 204 214
326 324 324 326 328 329 328 329 331 334 338 339 338 339 342 342 341 341 340 340 337 338 343 343 341 340 341 347 346 337 336 332 323 312 302 295 291 286 278 267 258 254 243 231 232 232 227 223 222 223 223 219 215 215 217 216 217 216 210 208 205 207 219 220 216 216 212 215 224 221 220 229 229 212 210 215 211 206 210 216 216 210 204 199 192 192 201 210
328 326 324 324 325 327 325 324 323 326 331 334 335 337 338 337 336 337 337 334 330 333 340 341 339 337 335 341 346 339 335 333 325 313 303 296 290 282 276 269 261 257 247 236 238 236 230 228 227 227 226 222 218 217 217 217 218 214 209 208 205 207 221 221 218 220 217 218 226 230 226 227 234 225 216 221 218 210 209 214 217 215 208 202 195 192 199 207
328 327 326 324 325 325 323 321 320 319 323 328 331 333 333 333 333 335 333 325 326 330 334 335 335 332 331 340 347 343 342 341 330 317 309 303 296 287 279 269 261 260 249 238 242 237 229 231 231 230 230 228 223 219 218 218 219 214 210 210 206 208 223 223 220 222 220 222 226 230 232 229 234 235 226 220 213 209 209 212 215 217 212 206 199 193 196 206
327 326 326 325 325 324 322 320 318 316 318 323 327 329 329 330 330 330 325 320 321 324 326 330 329 327 328 339 346 343 346 347 337 329 320 309 304 297 287 273 261 257 244 235 236 228 223 228 232 232 232 233 230 225 222 221 218 215 213 212 208 210 221 222 223 225 222 225 228 230 235 235 238 242 239 233 218 209 210 211 213 215 214 211 205 196 194 203
325 325 325 324 325 325 322 320 319 317 316 318 322 325 325 326 326 322 317 316 318 319 323 326 325 324 326 336 344 342 345 347 339 337 329 315 310 303 291 276 256 240 233 233 234 232 232 233 235 235 234 235 234 230 225 222 219 216 213 212 211 214 220 220 222 223 221 225 228 231 238 241 245 249 247 244 241 228 213 210 210 210 211 213 209 200 195 199
322 322 322 322 323 324 322 321 320 318 315 315 317 320 320 322 321 316 312 313 313 314 318 320 321 323 327 335 341 338 339 342 340 338 331 318 311 304 290 272 246 231 233 234 236 241 248 245 241 241 239 235 233 231 226 223 221 218 214 213 214 215 217 220 221 218 221 227 229 231 237 243 252 254 251 247 243 243 218 210 210 208 208 211 211 205 198 198
319 319 319 319 320 321 321 320 319 319 315 313 314 314 314 315 314 310 307 304 304 306 309 315 318 320 328 335 336 332 330 332 338 338 332 321 314 308 291 271 244 233 234 238 240 237 240 243 239 238 238 235 232 229 225 222 221 219 216 214 214 214 213 217 219 215 218 225 227 231 236 242 248 251 253 249 235 231 224 212 211 210 208 208 208 206 199 197
316 316 316 317 317 318 318 318 318 318 315 312 312 310 308 309 308 304 299 296 297 299 303 312 316 321 331 336 330 323 320 320 328 331 329 323 314 299 282 269 249 237 233 237 243 235 231 238 238 235 237 237 234 230 226 224 223 223 219 216 215 212 212 216 219 219 219 221 224 228 234 241 243 246 254 252 236 226 226 218 212 212 211 208 206 204 198 195
313 312 312 313 314 315 316 316 316 316 314 312 309 306 305 304 302 297 293 295 298 301 308 316 322 328 332 329 318 307 303 308 317 317 317 314 303 289 275 266 253 239 231 233 242 238 236 241 242 239 239 238 235 232 228 224 222 222 220 219 217 213 213 217 221 224 224 221 223 225 230 240 242 245 251 247 239 232 227 227 217 212 213 212 209 205 198 193
309 309 308 309 310 311 313 313 313 313 312 311 307 303 302 298 297 294 292 296 298 303 315 320 322 328 324 315 305 291 291 301 308 306 312 311 302 299 287 273 259 243 235 236 242 243 244 250 250 244 240 238 236 235 231 225 223 221 217 217 217 213 215 218 218 220 221 220 222 225 229 234 234 236 240 231 228 229 225 230 228 214 211 213 212 208 200 195
306 305 304 304 305 306 309 310 310 309 308 309 306 301 297 293 292 290 289 292 292 296 307 307 307 316 321 318 299 278 284 296 301 299 307 309 302 302 301 290 271 251 241 239 242 246 248 253 255 248 241 236 234 233 232 228 225 222 218 216 213 211 215 218 218 216 214 216 219 221 227 230 227 229 233 226 221 221 221 228 236 222 207 209 213 212 204 198
303 303 301 301 300 300 303 305 306 306 305 307 305 298 292 289 288 285 283 284 285 290 295 299 303 309 315 319 299 279 270 273 284 291 299 301 297 298 302 298 283 262 248 241 240 246 248 250 256 254 245 238 232 230 231 230 226 220 219 219 214 212 212 214 217 214 211 216 215 212 221 228 227 224 224 226 222 220 222 226 234 232 211 205 210 213 211 202
301 301 299 299 297 296 297 299 301 303 303 303 301 294 288 286 284 283 280 277 277 282 286 292 300 302 306 316 307 289 274 270 276 285 291 290 287 290 295 295 288 273 258 249 242 242 244 247 254 257 254 245 235 231 231 231 228 219 217 219 218 215 213 213 216 214 211 212 207 202 210 218 222 219 215 223 224 221 226 226 228 234 225 210 207 212 216 209
300 300 299 299 296 293 292 293 297 300 300 298 296 291 287 284 282 281 281 276 273 276 278 284 291 292 296 304 300 292 287 281 279 283 286 284 280 285 290 293 291 278 263 258 250 241 240 243 247 252 255 249 237 229 226 227 229 222 215 217 217 212 210 212 215 213 209 206 205 205 201 200 207 209 209 220 224 220 225 228 228 231 234 222 212 211 216 213
299 300 300 300 297 293 289 289 293 296 295 293 292 289 286 284 283 281 280 278 274 275 277 282 287 287 284 285 286 290 291 284 282 284 286 283 276 275 282 288 293 292 273 256 246 237 235 239 243 246 250 251 243 230 223 222 224 220 215 216 213 206 206 208 209 210 209 207 211 217 204 191 194 198 203 214 218 218 220 224 229 231 234 234 220 213 215 215
299 299 301 302 299 292 288 287 290 292 291 289 287 286 284 284 284 281 278 276 273 273 276 280 282 282 280 282 285 288 286 283 283 285 285 282 274 272 280 289 302 309 288 254 243 235 231 236 242 243 246 252 250 237 228 220 214 215 219 219 210 203 207 210 208 208 208 207 212 215 202 194 193 192 196 205 209 211 215 219 226 229 232 237 224 214 215 217
297 297 299 302 299 292 287 287 289 289 287 285 282 282 282 282 282 280 276 273 270 268 270 274 275 274 275 279 281 281 280 280 282 282 278 275 273 279 289 295 305 309 283 252 241 233 231 235 241 243 242 243 240 235 232 223 215 218 223 220 209 205 211 215 213 210 206 207 212 203 192 199 201 193 192 197 202 205 208 215 224 228 233 240 226 213 212 216
294 295 297 300 298 292 288 288 288 287 285 281 277 277 278 277 277 278 276 272 268 263 263 268 273 275 274 276 276 275 275 276 278 278 272 267 266 277 292 299 312 314 285 252 235 229 233 237 239 242 241 240 237 236 237 231 226 228 227 220 214 214 220 220 214 209 204 207 214 203 191 196 201 197 194 192 196 202 206 213 222 229 237 243 227 209 208 213
292 293 294 296 296 291 289 287 287 286 282 278 275 274 275 273 271 272 271 270 268 263 260 262 270 277 279 279 278 275 275 276 277 274 267 264 262 266 282 297 312 312 287 251 231 229 234 235 234 237 241 244 244 242 241 234 229 233 233 229 225 225 231 226 215 209 206 208 213 210 200 194 193 195 196 195 198 201 204 214 221 227 237 244 234 210 206 213
287 290 291 292 293 291 289 286 286 287 282 276 273 273 273 270 268 267 265 265 265 262 260 261 267 276 281 283 282 277 277 280 278 270 262 262 262 258 258 274 297 304 293 251 236 237 238 236 233 234 238 244 247 246 246 238 229 232 236 237 234 232 237 234 217 210 213 213 211 209 207 207 207 204 199 203 210 207 207 219 223 226 234 238 238 224 211 213
283 286 286 287 289 289 288 286 286 286 281 275 272 272 271 268 265 264 262 258 257 257 258 261 265 273 278 282 283 279 280 283 281 274 267 264 263 256 246 247 274 298 305 282 259 251 250 246 238 235 237 240 242 244 245 243 239 237 237 240 241 235 237 238 223 212 214 216 211 204 202 207 214 213 207 209 217 216 217 225 228 231 235 234 235 232 221 214
278 281 282 284 285 286 287 286 285 283 280 276 272 269 268 267 265 263 260 255 248 247 250 254 260 266 271 275 276 274 276 277 273 271 271 271 268 259 248 243 252 272 280 279 275 270 267 255 240 234 235 234 235 237 239 239 238 238 238 238 239 235 234 237 231 220 215 214 210 203 200 203 211 214 211 213 221 224 227 233 239 242 243 240 237 232 226 221
274 276 278 281 283 283 284 284 283 281 278 275 272 268 265 264 262 260 259 253 245 242 240 240 251 259 264 271 274 272 271 267 265 268 273 279 277 267 255 243 232 236 251 267 279 282 280 262 244 237 234 231 229 231 235 237 235 236 238 235 231 231 232 231 232 229 216 205 201 200 198 201 209 215 215 216 222 227 230 237 248 254 254 250 242 232 227 225
273 273 275 277 279 281 281 281 282 280 277 274 272 269 266 263 262 259 257 252 245 243 238 235 242 250 255 261 266 269 268 265 266 271 275 279 279 274 264 245 222 220 232 250 275 288 288 275 259 246 240 236 229 226 231 235 235 235 236 234 230 228 228 225 227 227 212 198 195 198 200 202 208 214 218 218 223 230 233 239 249 255 261 262 246 230 224 223
273 273 273 274 276 277 279 280 279 278 276 274 271 269 266 264 261 257 254 250 245 242 239 237 239 243 245 250 255 261 265 265 267 269 270 270 275 278 276 264 238 225 229 239 259 278 285 283 279 266 251 243 233 227 227 230 234 235 234 233 230 227 224 222 221 219 205 193 191 194 195 197 203 209 215 218 223 230 235 240 247 252 258 260 246 226 220 217